Location: Caltech
(34.1382°N, 118.1253°W)
Time: 23:32:17
(UTC-07:00)

Iridium 95 - Visible Passes

Search period start: 18 June 2018 00:00
Search period end: 28 June 2018 00:00
Orbit: 776 x 779 km, 86.4° (Epoch: 18 June)

Date Brightness Start Highest point End Pass type
(mag) Time Alt. Az. Time Alt. Az. Time Alt. Az.
18 Jun 6.1 03:25:56 10° N 03:31:03 54° E 03:34:42 19° SSE visible
18 Jun 7.3 05:08:38 10° NW 05:11:11 14° W 05:13:46 10° WSW visible
19 Jun 7.2 02:52:58 10° NNE 02:57:24 28° E 03:00:49 15° SE visible
19 Jun 6.6 04:33:40 10° NNW 04:37:58 27° W 04:41:15 15° SW visible
20 Jun 8.0 02:20:49 10° NE 02:23:37 14° ENE 02:26:25 10° ESE visible
20 Jun 5.7 03:59:34 10° NNW 04:04:38 52° W 04:07:24 25° SSW visible
21 Jun 5.5 03:25:56 10° N 03:31:10 81° E 03:33:34 33° S visible
22 Jun 6.5 02:52:40 10° NNE 02:57:35 41° E 02:59:45 28° SE visible
22 Jun 7.1 04:34:27 10° NW 04:37:54 18° W 04:40:12 14° WSW visible
23 Jun 7.5 02:19:56 10° NNE 02:23:53 22° E 02:25:58 17° ESE visible
23 Jun 6.3 03:59:56 10° NNW 04:04:38 34° W 04:06:25 27° WSW visible
24 Jun 8.1 01:48:49 10° ENE 01:50:04 11° ENE 01:51:19 10° E visible
24 Jun 5.5 03:26:03 10° N 03:31:14 68° W 03:32:38 47° SSW visible
25 Jun 5.8 02:52:33 10° N 02:57:44 62° E 02:58:53 49° SE visible
25 Jun 7.5 04:35:56 10° WNW 04:37:48 12° W 04:39:20 11° W visible
26 Jun 6.8 02:19:28 10° NNE 02:24:07 32° E 02:25:09 29° ESE visible
26 Jun 6.8 04:00:32 10° NNW 04:04:36 23° W 04:05:37 22° W visible
27 Jun 7.7 01:47:05 10° NE 01:50:22 17° ENE 01:51:27 16° E visible
27 Jun 5.9 03:26:19 10° NNW 03:31:16 45° W 03:31:53 43° WSW visible
